Weather History for Sete, France

Change the Weather History Date:

Friday, December 14, 2012

  Actual Average (LFMT) Record (LFMT)
Temperature  
Mean Temperature 50 °F -  
Max Temperature 55 °F 51 °F 66 °F (2003)
Min Temperature 46 °F 37 °F 24 °F (2001)
Degree Days  
Heating Degree Days 14    
Moisture  
Dew Point 48 °F    
Average Humidity 92    
Maximum Humidity 100    
Minimum Humidity 82    
Precipitation  
Precipitation 0.00 in - - ()
Sea Level Pressure  
Sea Level Pressure 29.69 in    
Wind  
Wind Speed 9 mph ()    
Max Wind Speed 15 mph    
Max Gust Speed -    
Visibility 6.1 miles    
Events Rain    
Averages and records for this station are not official NWS values.
T = Trace of Precipitation, MM = Missing Value Source: Averaged Metar Reports

Daily Weather History Graph

Daily Weather History Graph

Search for Another Location

Airport:

Trip Planner

Search our weather history database for the weather conditions in past years. The results will help you decide how hot, cold, wet, or windy it might be!

Date:

Astronomy

Dec. 14, 2012 Rise Set
Actual Time 8:11 AM CET 5:11 PM CET
Civil Twilight 7:38 AM CET 5:43 PM CET
Nautical Twilight 7:02 AM CET 6:19 PM CET
Astronomical Twilight 6:28 AM CET 6:54 PM CET
Moon 9:01 AM CET (12/14) 6:47 PM CET (12/14)
Length of Visible Light 10h 04m
Length of Day
8h 59m
New Moon, 2% of the Moon is Illuminated
Dec 14
New Moon
Dec 20
First Quarter
Dec 28
Full
Jan 5
Last Quarter
Jan 11
New

Hourly Weather History & Observations

Time (CET) Temp. Windchill Dew Point Humidity Pressure Visibility Wind Dir Wind Speed Gust Speed Precip Events Conditions
12:30 AM 50.0 °F - 46.4 °F 87% 29.71 in 6.2 mi NNE 10.4 mph - N/A   Unknown
1:00 AM 50.0 °F - 46.4 °F 87% 29.74 in 6.2 mi North 8.1 mph - N/A   Unknown
2:00 AM 50.0 °F - 48.2 °F 94% 29.71 in 6.2 mi NNE 11.5 mph - N/A Rain Light Rain
2:30 AM 50.0 °F - 48.2 °F 94% 29.71 in 6.2 mi NNE 8.1 mph - N/A   Unknown
3:00 AM 50.0 °F - 48.2 °F 94% 29.71 in 6.2 mi NNE 5.8 mph - N/A   Unknown
3:30 AM 50.0 °F - 48.2 °F 94% 29.74 in 6.2 mi Variable 5.8 mph - N/A   Unknown
4:00 AM 50.0 °F - 48.2 °F 94% 29.74 in 6.2 mi NNW 5.8 mph - N/A   Unknown
4:30 AM 48.2 °F - 46.4 °F 93% 29.74 in 6.2 mi NNW 3.5 mph - N/A   Unknown
5:00 AM 48.2 °F - 46.4 °F 93% 29.74 in 6.2 mi North 5.8 mph - N/A   Unknown
5:30 AM 48.2 °F - 46.4 °F 93% 29.74 in 6.2 mi North 10.4 mph - N/A   Unknown
6:00 AM 48.2 °F - 46.4 °F 93% 29.74 in 6.2 mi NNE 9.2 mph - N/A   Unknown
6:30 AM 46.4 °F 42.4 °F 44.6 °F 93% 29.74 in 6.2 mi North 8.1 mph - N/A   Unknown
7:00 AM 46.4 °F 41.9 °F 46.4 °F 100% 29.74 in 6.2 mi NNE 9.2 mph - N/A   Unknown
7:30 AM 46.4 °F 42.9 °F 46.4 °F 100% 29.74 in 6.2 mi NNE 6.9 mph - N/A   Unknown
8:00 AM 46.4 °F 41.9 °F 46.4 °F 100% 29.74 in 6.2 mi NNE 9.2 mph - N/A   Unknown
8:30 AM 48.2 °F - 46.4 °F 93% 29.74 in 6.2 mi NNE 10.4 mph - N/A   Mostly Cloudy
9:00 AM 48.2 °F - 46.4 °F 93% 29.74 in 6.2 mi North 9.2 mph - N/A   Overcast
9:30 AM 48.2 °F - 46.4 °F 93% 29.74 in 6.2 mi NNE 11.5 mph - N/A   Overcast
10:00 AM 50.0 °F - 48.2 °F 94% 29.74 in 5.6 mi NE 11.5 mph - N/A   Overcast
10:30 AM 50.0 °F - 48.2 °F 94% 29.74 in 5.6 mi NNE 12.7 mph - N/A   Overcast
11:00 AM 50.0 °F - 48.2 °F 94% 29.74 in 6.2 mi NNE 15.0 mph - N/A   Overcast
11:30 AM 51.8 °F - 48.2 °F 88% 29.74 in 6.2 mi NNE 13.8 mph - N/A   Mostly Cloudy
12:00 PM 51.8 °F - 50.0 °F 94% 29.71 in 6.2 mi NNE 12.7 mph - N/A   Unknown
12:30 PM 55.4 °F - 50.0 °F 82% 29.71 in 6.2 mi NE 12.7 mph - N/A   Partly Cloudy
1:00 PM 55.4 °F - 51.8 °F 88% 29.71 in 6.2 mi NNE 11.5 mph - N/A   Scattered Clouds
1:30 PM 55.4 °F - 50.0 °F 82% 29.68 in 6.2 mi NNE 15.0 mph - N/A   Overcast
2:00 PM 55.4 °F - 50.0 °F 82% 29.68 in 6.2 mi NNE 12.7 mph - N/A   Mostly Cloudy
2:30 PM 53.6 °F - 50.0 °F 88% 29.65 in 6.2 mi North 11.5 mph - N/A   Overcast
3:00 PM 53.6 °F - 50.0 °F 88% 29.65 in 6.2 mi North 11.5 mph - N/A   Mostly Cloudy
3:30 PM 53.6 °F - 50.0 °F 88% 29.65 in 6.2 mi North 11.5 mph - N/A   Unknown
4:00 PM 53.6 °F - 48.2 °F 82% 29.65 in 6.2 mi North 10.4 mph - N/A   Unknown
4:30 PM 51.8 °F - 48.2 °F 88% 29.65 in 6.2 mi North 10.4 mph - N/A   Unknown
5:00 PM 51.8 °F - 48.2 °F 88% 29.65 in 6.2 mi North 10.4 mph - N/A   Unknown
5:30 PM 51.8 °F - 48.2 °F 88% 29.65 in 6.2 mi NNE 11.5 mph - N/A   Unknown
6:00 PM 50.0 °F - 48.2 °F 94% 29.65 in 6.2 mi North 10.4 mph - N/A   Unknown
6:30 PM 51.8 °F - 48.2 °F 88% 29.65 in 6.2 mi North 10.4 mph - N/A   Unknown
7:00 PM 50.0 °F - 48.2 °F 94% 29.65 in 6.2 mi North 10.4 mph - N/A   Unknown
7:30 PM 50.0 °F - 48.2 °F 94% 29.65 in 6.2 mi NNE 11.5 mph - N/A   Unknown
8:00 PM 50.0 °F - 48.2 °F 94% 29.62 in 6.2 mi NNE 11.5 mph - N/A   Unknown
8:30 PM 50.0 °F - 48.2 °F 94% 29.65 in 6.2 mi North 8.1 mph - N/A   Unknown
9:00 PM 50.0 °F - 48.2 °F 94% 29.65 in 6.2 mi North 8.1 mph - N/A   Unknown
9:30 PM 50.0 °F - 48.2 °F 94% 29.62 in 6.2 mi North 5.8 mph - N/A   Unknown
10:00 PM 50.0 °F - 48.2 °F 94% 29.62 in 6.2 mi North 8.1 mph - N/A   Unknown
11:00 PM 50.0 °F - 48.2 °F 94% 29.62 in 5.6 mi NNW 5.8 mph - N/A   Unknown
11:30 PM 50.0 °F - 48.2 °F 94% 29.62 in 5.6 mi NW 8.1 mph - N/A   Unknown